Hyannis, MA

1:30 PM EDT on June 23, 2017 (GMT -0400)
Barnstable Municipal-Boardman-Polando Field

Weather History for KHYA - October, 2012

Change the Weather History Date:

Tuesday, October 9, 2012

  Actual Average Record
Temperature  
Mean Temperature 53 °F -  
Max Temperature 57 °F 63 °F 84 °F (2011)
Min Temperature 51 °F 46 °F 25 °F (1953)
Degree Days  
Heating Degree Days 12    
Growing Degree Days 3 (Base 50)    
Moisture  
Dew Point 52 °F    
Average Humidity 95    
Maximum Humidity 100    
Minimum Humidity 88    
Precipitation  
Precipitation 0.19 in - - ()
Sea Level Pressure  
Sea Level Pressure 30.19 in    
Wind  
Wind Speed 8 mph (NE)    
Max Wind Speed 15 mph    
Max Gust Speed 21 mph    
Visibility 7 miles    
Events Rain    
Averages and records for this station are not official NWS values.
T = Trace of Precipitation, MM = Missing Value Source: NWS Daily Summary

Daily Weather History Graph

Daily Weather History Graph

Search for Another Location

Airport or City:

Trip Planner

Search our weather history database for the weather conditions in past years. The results will help you decide how hot, cold, wet, or windy it might be!

Date:

Astronomy

Oct. 09, 2012 Rise Set
Actual Time 6:47 AM EDT 6:08 PM EDT
Civil Twilight 6:19 AM EDT 6:36 PM EDT
Nautical Twilight 5:47 AM EDT 7:08 PM EDT
Astronomical Twilight 5:14 AM EDT 7:40 PM EDT
Moon 12:15 AM EDT (10/9) 2:38 PM EDT (10/9)
Length of Visible Light 12h 17m
Length of Day
11h 21m
Last Quarter, 37% of the Moon is Illuminated
Oct 9
Last Quarter
Oct 15
New
Oct 21
First Quarter
Oct 29
Full
Nov 6
Last Quarter

Hourly Weather History & Observations

Time (EDT) Temp. Dew Point Humidity Pressure Visibility Wind Dir Wind Speed Gust Speed Precip Events Conditions
12:56 AM 52.0 °F 48.9 °F 89% 30.27 in 10.0 mi NE 5.8 mph - 0.00 in Rain Light Rain
1:48 AM 51.8 °F 50.0 °F 94% 30.29 in 9.0 mi NE 4.6 mph - 0.04 in Rain Light Rain
1:56 AM 52.0 °F 50.0 °F 93% 30.29 in 9.0 mi NE 4.6 mph - 0.05 in Rain Light Rain
2:56 AM 52.0 °F 50.0 °F 93% 30.24 in 9.0 mi ENE 6.9 mph - 0.06 in Rain Rain
3:56 AM 52.0 °F 51.1 °F 97% 30.23 in 10.0 mi NE 8.1 mph - 0.06 in Rain Light Rain
4:56 AM 52.0 °F 51.1 °F 97% 30.22 in 10.0 mi NE 6.9 mph - 0.00 in   Overcast
5:47 AM 51.8 °F 51.8 °F 100% 30.21 in 10.0 mi NE 6.9 mph - N/A   Overcast
5:56 AM 52.0 °F 51.1 °F 97% 30.22 in 10.0 mi NE 5.8 mph - N/A   Overcast
6:56 AM 53.1 °F 51.1 °F 93% 30.23 in 10.0 mi NE 4.6 mph - N/A   Overcast
7:24 AM 51.8 °F 50.0 °F 94% 30.22 in 2.5 mi ENE 9.2 mph 16.1 mph 0.00 in Rain Light Rain
7:51 AM 51.8 °F 51.8 °F 100% 30.22 in 3.0 mi ENE 9.2 mph - 0.01 in Rain Light Rain
7:56 AM 52.0 °F 51.1 °F 97% 30.22 in 3.0 mi NE 10.4 mph - 0.01 in   Overcast
8:10 AM 51.8 °F 51.8 °F 100% 30.22 in 2.5 mi NE 9.2 mph - 0.00 in Rain Light Rain
8:30 AM 51.8 °F 51.8 °F 100% 30.22 in 2.5 mi NE 9.2 mph - 0.00 in Rain Light Rain
8:46 AM 51.8 °F 51.8 °F 100% 30.22 in 3.0 mi NE 9.2 mph - 0.01 in Rain Light Rain
8:56 AM 52.0 °F 51.1 °F 97% 30.22 in 3.0 mi ENE 10.4 mph - 0.01 in Rain Light Rain
9:00 AM 51.8 °F 51.8 °F 100% 30.21 in 2.5 mi ENE 9.2 mph - 0.00 in Rain Light Rain
9:17 AM 51.8 °F 51.8 °F 100% 30.22 in 5.0 mi NE 10.4 mph - 0.00 in   Overcast
9:56 AM 53.1 °F 52.0 °F 96% 30.23 in 7.0 mi ENE 9.2 mph - 0.00 in   Overcast
10:49 AM 53.6 °F 53.6 °F 100% 30.21 in 10.0 mi NE 11.5 mph - N/A   Overcast
10:56 AM 54.0 °F 53.1 °F 97% 30.21 in 9.0 mi NE 10.4 mph - N/A   Overcast
11:56 AM 54.0 °F 53.1 °F 97% 30.20 in 5.0 mi NE 11.5 mph - 0.00 in   Overcast
12:56 PM 55.0 °F 54.0 °F 96% 30.18 in 6.0 mi NE 10.4 mph - N/A   Overcast
1:54 PM 55.4 °F 53.6 °F 94% 30.15 in 10.0 mi NE 9.2 mph - N/A   Overcast
1:56 PM 55.9 °F 53.1 °F 90% 30.16 in 10.0 mi NE 8.1 mph - N/A   Overcast
2:56 PM 55.9 °F 53.1 °F 90% 30.15 in 10.0 mi NE 11.5 mph - N/A   Overcast
3:03 PM 55.4 °F 53.6 °F 94% 30.15 in 10.0 mi NE 12.7 mph - N/A   Overcast
3:25 PM 55.4 °F 51.8 °F 88% 30.15 in 10.0 mi NE 9.2 mph - N/A   Overcast
3:56 PM 55.0 °F 53.1 °F 93% 30.14 in 5.0 mi NE 15.0 mph 20.7 mph 0.00 in Rain Light Rain
4:03 PM 55.4 °F 53.6 °F 94% 30.14 in 6.0 mi NE 10.4 mph 20.7 mph 0.00 in Rain Light Rain
4:56 PM 54.0 °F 52.0 °F 93% 30.14 in 9.0 mi NE 13.8 mph - 0.00 in   Overcast
5:56 PM 54.0 °F 52.0 °F 93% 30.14 in 10.0 mi NE 9.2 mph 18.4 mph N/A   Overcast
6:56 PM 54.0 °F 52.0 °F 93% 30.13 in 10.0 mi NE 9.2 mph - N/A   Overcast
7:56 PM 54.0 °F 52.0 °F 93% 30.12 in 10.0 mi NNE 10.4 mph - N/A   Overcast
8:56 PM 55.0 °F 52.0 °F 89% 30.12 in 10.0 mi NE 10.4 mph - N/A   Overcast
9:56 PM 55.0 °F 53.1 °F 93% 30.12 in 10.0 mi NNE 8.1 mph - N/A   Overcast
10:56 PM 55.0 °F 54.0 °F 96% 30.12 in 5.0 mi NNE 4.6 mph - 0.00 in   Overcast
11:17 PM 55.4 °F 53.6 °F 94% 30.11 in 4.0 mi NNE 5.8 mph - N/A   Overcast
11:56 PM 55.0 °F 54.0 °F 96% 30.11 in 8.0 mi NNE 5.8 mph - N/A   Overcast